User: anonymous   Login
Location: Long Point Provincial Park
(42.5794°N, 80.4103°W)
Time: 20:45:50
(UTC-05:00)
Language:

Iridium 19 - Orbit

View from above orbital plane
View from above orbital plane
View from above satellite
View from above satellite

Ground track
Ground track

The orbit data is extracted from the following two-line orbital elements,

1 24965U 97056A   16044.41722169  .00000344  00000-0  11584-3 0  9993
2 24965  86.4013 163.4399 0002043  97.6930 262.4498 14.34217716962354
Epoch (UTC): 13 February 2016 10:00:47
Eccentricity: 0.0002043
inclination: 86.4013°
perigee height: 776 km
apogee height: 779 km
right ascension of ascending node: 163.4399°
argument of perigee: 97.6930°
revolutions per day: 14.34217716
mean anomaly at epoch: 262.4498°
orbit number at epoch: 96235

The dashed part of the orbit path shows where the satellite is in the earth's shadow,  

DLR